{"data":{"norad_id":62101,"intl_designator":"2024-220P","name":"STARLINK-33545","alt_names":[],"object_type":"PAYLOAD","status":"ACTIVE","operator":null,"country":"US","launch_date":"2024-11-25","launch_site_code":"AFETR","launch_vehicle":null,"mission":null,"orbit_class":"UNKNOWN","rcs_meters":null,"size_class":null,"mass_kg":null,"dimensions":null,"purposes":["comms"],"wikipedia_slug":null,"has_3d_model":false,"image_url":null,"decayed_at":null,"tle_current":{"epoch":"2026-05-24T23:49:16.737312Z","epoch_age_seconds":65933,"freshness":"FRESH","line1":"1 62101U 24220P   26144.99255483  .00012766  00000+0  47246-3 0  9999","line2":"2 62101  42.9953 134.3761 0001382 309.0092  51.0636 15.27590477 84691","mean_motion":15.27590477,"eccentricity":0.0001382,"inclination_deg":42.9953,"raan_deg":134.3761,"arg_perigee_deg":309.0092,"mean_anomaly_deg":51.0636,"bstar":0.00047246,"rev_number":8469,"period_min":94.266102183877,"perigee_km":482.06951272898,"apogee_km":483.96593589478,"semimajor_km":6861.1547243119,"source":"CELESTRAK","updated_at":"2026-05-25T13:38:19.559911Z"}}}